When you browse on this site, cookies collect data to enhance your experience and personalize the content and advertising you see.
Visit our Privacy Policy to learn more. By continuing to use the site, you agree to this use of cookies and data.
  • In United Kingdom
  • List of Countries
  • For 7 days
  • Water Temperature
  • Weather Map
  • Weather Widgets
  • user-avatar
    Login

    Hourly Weather Solwezi

    Today, 22 October, Tuesday

    Time Temperature Precipitation Wind Pressure Humidity
    00:00 +31°C° 0 mm 3 mps 711 mmHg 50%
    01:00 +31°C° 0 mm 3 mps 711 mmHg 51%
    02:00 +30°C° 0 mm 3 mps 711 mmHg 51%
    03:00 +30°C° 0 mm 3 mps 711 mmHg 53%
    04:00 +29°C° 0 mm 3 mps 711 mmHg 55%
    05:00 +29°C° 0 mm 3 mps 711 mmHg 57%
    06:00 +29°C° 0 mm 3 mps 711 mmHg 57%
    07:00 +30°C° 0 mm 3 mps 712 mmHg 56%
    08:00 +30°C° 0 mm 3 mps 713 mmHg 55%
    09:00 +31°C° 0 mm 3 mps 713 mmHg 52%
    10:00 +34°C° 0 mm 3 mps 713 mmHg 48%
    11:00 +35°C° 0 mm 3 mps 713 mmHg 44%
    12:00 +35°C° 0 mm 2 mps 712 mmHg 42%
    13:00 +36°C° 0 mm 2 mps 711 mmHg 39%
    14:00 +37°C° 0 mm 2 mps 711 mmHg 37%
    15:00 +37°C° 0 mm 2 mps 711 mmHg 37%
    16:00 +36°C° 0 mm 2 mps 710 mmHg 37%
    17:00 +36°C° 0 mm 3 mps 710 mmHg 37%
    18:00 +35°C° 0.2 mm 4 mps 711 mmHg 42%
    19:00 +34°C° 0.2 mm 5 mps 711 mmHg 46%
    20:00 +32°C° 0.2 mm 6 mps 711 mmHg 51%
    21:00 +32°C° 0.1 mm 6 mps 712 mmHg 55%
    22:00 +30°C° 0.1 mm 5 mps 712 mmHg 59%
    23:00 +29°C° 0.1 mm 4 mps 712 mmHg 64%

    Tomorrow, 23 October, Wednesday

    Time Temperature Precipitation Wind Pressure Humidity
    00:00 +29°C° 0.1 mm 4 mps 712 mmHg 65%
    01:00 +28°C° 0.1 mm 5 mps 711 mmHg 66%
    02:00 +28°C° 0.1 mm 5 mps 711 mmHg 68%
    03:00 +28°C° 0 mm 4 mps 711 mmHg 68%
    04:00 +28°C° 0 mm 4 mps 711 mmHg 68%
    05:00 +28°C° 0 mm 4 mps 711 mmHg 68%
    06:00 +28°C° 0 mm 3 mps 712 mmHg 66%
    07:00 +29°C° 0 mm 2 mps 712 mmHg 65%
    08:00 +29°C° 0 mm 2 mps 713 mmHg 63%
    09:00 +31°C° 0 mm 1 mps 713 mmHg 56%
    10:00 +32°C° 0 mm 1 mps 713 mmHg 49%
    11:00 +32°C° 0 mm 0 mps 713 mmHg 41%
    12:00 +35°C° 0 mm 1 mps 712 mmHg 38%
    13:00 +36°C° 0 mm 1 mps 711 mmHg 35%
    14:00 +37°C° 0 mm 1 mps 711 mmHg 32%
    15:00 +37°C° 0 mm 1 mps 710 mmHg 31%
    16:00 +37°C° 0 mm 2 mps 710 mmHg 31%
    17:00 +37°C° 0 mm 2 mps 710 mmHg 31%
    18:00 +37°C° 0 mm 2 mps 710 mmHg 32%
    19:00 +37°C° 0 mm 2 mps 711 mmHg 33%
    20:00 +36°C° 0 mm 2 mps 711 mmHg 34%
    21:00 +35°C° 0.2 mm 2 mps 711 mmHg 39%
    22:00 +34°C° 0.2 mm 3 mps 711 mmHg 44%
    23:00 +32°C° 0.2 mm 4 mps 711 mmHg 48%

    Day after tomorrow, 24 October, Thursday

    Time Temperature Precipitation Wind Pressure Humidity
    00:00 +31°C° 0 mm 3 mps 711 mmHg 50%
    01:00 +31°C° 0 mm 3 mps 711 mmHg 53%
    02:00 +30°C° 0 mm 2 mps 711 mmHg 55%
    03:00 +30°C° 0 mm 2 mps 711 mmHg 56%
    04:00 +30°C° 0 mm 2 mps 711 mmHg 58%
    05:00 +29°C° 0 mm 1 mps 711 mmHg 59%
    06:00 +30°C° 0 mm 1 mps 712 mmHg 57%
    07:00 +30°C° 0 mm 1 mps 713 mmHg 55%
    08:00 +29°C° 0 mm 0 mps 713 mmHg 53%
    09:00 +32°C° 0 mm 1 mps 713 mmHg 49%
    10:00 +33°C° 0 mm 1 mps 713 mmHg 44%
    11:00 +35°C° 0 mm 1 mps 713 mmHg 39%
    12:00 +37°C° 0 mm 2 mps 713 mmHg 35%
    13:00 +38°C° 0 mm 3 mps 712 mmHg 30%
    14:00 +39°C° 0 mm 3 mps 711 mmHg 26%
    15:00 +38°C° 0 mm 4 mps 711 mmHg 24%
    16:00 +39°C° 0 mm 5 mps 710 mmHg 23%
    17:00 +39°C° 0 mm 6 mps 710 mmHg 21%
    18:00 +37°C° 0 mm 5 mps 711 mmHg 21%
    19:00 +37°C° 0 mm 4 mps 711 mmHg 22%
    20:00 +36°C° 0 mm 3 mps 711 mmHg 23%
    21:00 +35°C° 0 mm 3 mps 711 mmHg 23%
    22:00 +35°C° 0 mm 3 mps 711 mmHg 23%
    23:00 +34°C° 0 mm 4 mps 711 mmHg 23%

    25 October, Friday

    Time Temperature Precipitation Wind Pressure Humidity
    00:00 +33°C° 0 mm 3 mps 712 mmHg 23%
    01:00 +33°C° 0 mm 3 mps 712 mmHg 24%
    02:00 +31°C° 0 mm 3 mps 712 mmHg 24%
    03:00 +31°C° 0 mm 3 mps 712 mmHg 26%
    04:00 +30°C° 0 mm 3 mps 712 mmHg 27%
    05:00 +30°C° 0 mm 2 mps 712 mmHg 29%
    06:00 +30°C° 0 mm 2 mps 712 mmHg 30%
    07:00 +30°C° 0 mm 2 mps 713 mmHg 32%
    08:00 +31°C° 0 mm 2 mps 714 mmHg 34%
    09:00 +33°C° 0 mm 4 mps 714 mmHg 30%
    10:00 +35°C° 0 mm 5 mps 714 mmHg 27%
    11:00 +38°C° 0 mm 6 mps 714 mmHg 23%
    12:00 +38°C° 0 mm 6 mps 713 mmHg 22%
    13:00 +39°C° 0 mm 6 mps 712 mmHg 21%
    14:00 +39°C° 0 mm 5 mps 711 mmHg 20%
    15:00 +39°C° 0 mm 6 mps 711 mmHg 20%
    16:00 +39°C° 0 mm 6 mps 711 mmHg 20%
    17:00 +39°C° 0 mm 6 mps 711 mmHg 20%
    18:00 +37°C° 0 mm 5 mps 711 mmHg 20%
    19:00 +36°C° 0 mm 4 mps 712 mmHg 21%
    20:00 +35°C° 0 mm 3 mps 712 mmHg 21%
    21:00 +34°C° 0 mm 3 mps 712 mmHg 22%
    22:00 +34°C° 0 mm 3 mps 712 mmHg 23%
    23:00 +33°C° 0 mm 3 mps 712 mmHg 23%

    26 October, Saturday

    Time Temperature Precipitation Wind Pressure Humidity
    00:00 +33°C° 0 mm 3 mps 712 mmHg 24%
    01:00 +31°C° 0 mm 3 mps 712 mmHg 24%
    02:00 +31°C° 0 mm 3 mps 712 mmHg 25%
    03:00 +30°C° 0 mm 3 mps 712 mmHg 26%
    04:00 +30°C° 0 mm 3 mps 712 mmHg 26%
    05:00 +29°C° 0 mm 3 mps 712 mmHg 27%
    06:00 +30°C° 0 mm 4 mps 713 mmHg 27%
    07:00 +30°C° 0 mm 4 mps 713 mmHg 26%
    08:00 +32°C° 0 mm 5 mps 714 mmHg 25%
    09:00 +33°C° 0 mm 5 mps 714 mmHg 23%
    10:00 +34°C° 0 mm 6 mps 714 mmHg 21%
    11:00 +36°C° 0 mm 6 mps 714 mmHg 18%
    12:00 +36°C° 0 mm 6 mps 713 mmHg 17%
    13:00 +38°C° 0 mm 6 mps 712 mmHg 16%
    14:00 +39°C° 0 mm 6 mps 711 mmHg 14%
    15:00 +39°C° 0 mm 5 mps 711 mmHg 15%
    16:00 +39°C° 0 mm 5 mps 711 mmHg 15%
    17:00 +37°C° 0 mm 5 mps 711 mmHg 16%
    18:00 +36°C° 0 mm 4 mps 711 mmHg 17%
    19:00 +35°C° 0 mm 4 mps 712 mmHg 18%
    20:00 +34°C° 0 mm 3 mps 712 mmHg 19%
    21:00 +33°C° 0 mm 3 mps 712 mmHg 19%
    22:00 +33°C° 0 mm 3 mps 712 mmHg 20%
    23:00 +32°C° 0 mm 4 mps 712 mmHg 20%

    27 October, Sunday

    Time Temperature Precipitation Wind Pressure Humidity
    00:00 +32°C° 0 mm 4 mps 712 mmHg 21%
    01:00 +30°C° 0 mm 4 mps 712 mmHg 21%
    02:00 +30°C° 0 mm 4 mps 712 mmHg 21%
    03:00 +29°C° 0 mm 5 mps 712 mmHg 21%
    04:00 +29°C° 0 mm 5 mps 712 mmHg 21%
    05:00 +28°C° 0 mm 5 mps 712 mmHg 21%
    06:00 +29°C° 0 mm 6 mps 713 mmHg 21%
    07:00 +29°C° 0 mm 6 mps 713 mmHg 21%
    08:00 +29°C° 0 mm 6 mps 713 mmHg 21%
    09:00 +30°C° 0 mm 6 mps 713 mmHg 19%
    10:00 +32°C° 0 mm 6 mps 713 mmHg 18%
    11:00 +33°C° 0 mm 6 mps 713 mmHg 16%
    12:00 +34°C° 0 mm 6 mps 713 mmHg 15%
    13:00 +35°C° 0 mm 6 mps 712 mmHg 15%
    14:00 +36°C° 0 mm 6 mps 711 mmHg 14%
    15:00 +36°C° 0 mm 5 mps 711 mmHg 14%
    16:00 +35°C° 0 mm 5 mps 711 mmHg 15%
    17:00 +35°C° 0 mm 4 mps 710 mmHg 15%
    18:00 +34°C° 0 mm 4 mps 711 mmHg 16%
    19:00 +33°C° 0 mm 3 mps 711 mmHg 17%
    20:00 +31°C° 0 mm 3 mps 711 mmHg 18%
    21:00 +31°C° 0 mm 3 mps 711 mmHg 18%
    22:00 +30°C° 0 mm 3 mps 712 mmHg 18%
    23:00 +29°C° 0 mm 3 mps 712 mmHg 18%

    28 October, Monday

    Time Temperature Precipitation Wind Pressure Humidity
    00:00 +29°C° 0 mm 3 mps 712 mmHg 19%
    01:00 +28°C° 0 mm 3 mps 711 mmHg 20%
    02:00 +28°C° 0 mm 3 mps 711 mmHg 21%
    03:00 +27°C° 0 mm 3 mps 711 mmHg 21%
    04:00 +27°C° 0 mm 3 mps 711 mmHg 22%
    05:00 +27°C° 0 mm 3 mps 711 mmHg 22%
    06:00 +27°C° 0 mm 4 mps 712 mmHg 22%
    07:00 +28°C° 0 mm 4 mps 712 mmHg 22%
    08:00 +28°C° 0 mm 5 mps 712 mmHg 22%
    09:00 +30°C° 0 mm 5 mps 713 mmHg 20%
    10:00 +32°C° 0 mm 5 mps 713 mmHg 18%
    11:00 +34°C° 0 mm 5 mps 713 mmHg 16%
    12:00 +34°C° 0 mm 5 mps 712 mmHg 16%
    13:00 +35°C° 0 mm 4 mps 711 mmHg 15%
    14:00 +35°C° 0 mm 3 mps 710 mmHg 14%
    15:00 +35°C° 0 mm 3 mps 710 mmHg 14%
    16:00 +35°C° 0 mm 3 mps 710 mmHg 15%
    17:00 +35°C° 0 mm 3 mps 710 mmHg 15%
    18:00 +34°C° 0 mm 2 mps 711 mmHg 16%
    19:00 +32°C° 0 mm 2 mps 711 mmHg 18%
    20:00 +31°C° 0 mm 2 mps 711 mmHg 19%
    21:00 +31°C° 0 mm 2 mps 711 mmHg 19%
    22:00 +30°C° 0 mm 2 mps 711 mmHg 19%
    23:00 +30°C° 0 mm 2 mps 711 mmHg 20%
    Show more